User: anonymous   Login
Location: Unspecified
(0.0000°N, 0.0000°E)
Time: 00:38:38
(UTC+00:00)
Language:

NODES 1 - Orbit

View from above orbital plane
View from above orbital plane
View from above satellite
View from above satellite

Ground track
Ground track

The orbit data is extracted from the following two-line orbital elements,

1 41477U 98067HX  17206.28491189 +.00088663 +00000-0 +32040-3 0  9994
2 41477 051.6249 164.3672 0001223 070.9929 289.1208 15.87873492068115
Epoch (UTC): 25 July 2017 06:50:16
Eccentricity: 0.0001223
inclination: 51.6249°
perigee height: 307 km
apogee height: 309 km
right ascension of ascending node: 164.3672°
argument of perigee: 70.9929°
revolutions per day: 15.87873492
mean anomaly at epoch: 289.1208°
orbit number at epoch: 6811

The dashed part of the orbit path shows where the satellite is in the earth's shadow,  

DLR